• In Hungary
  • List of Countries
  • For 7 days
  • Water Temperature
  • Satellite Maps
  • Weather Map
  • News
  • Weather Widgets
  • user-avatar
    Login

    Hourly Weather Rozyny

    Today, 19 July, Thursday

    Time Temperature Precipitation Wind Pressure Humidity
    00:00 +19°C° 0 mm 3 mps 754 mmHg 92%
    01:00 +19°C° 0 mm 3 mps 754 mmHg 93%
    02:00 +19°C° 0.1 mm 3 mps 754 mmHg 93%
    03:00 +19°C° 0.1 mm 3 mps 754 mmHg 93%
    04:00 +19°C° 0.1 mm 3 mps 754 mmHg 93%
    05:00 +20°C° 0.1 mm 3 mps 754 mmHg 89%
    06:00 +21°C° 0.1 mm 3 mps 754 mmHg 85%
    07:00 +22°C° 0.1 mm 4 mps 755 mmHg 82%
    08:00 +23°C° 0.4 mm 4 mps 755 mmHg 79%
    09:00 +25°C° 0.4 mm 4 mps 755 mmHg 76%
    10:00 +26°C° 0.4 mm 4 mps 755 mmHg 73%
    11:00 +26°C° 0.4 mm 5 mps 755 mmHg 72%
    12:00 +26°C° 0.4 mm 5 mps 755 mmHg 71%
    13:00 +26°C° 0.4 mm 5 mps 755 mmHg 71%
    14:00 +26°C° 0.3 mm 5 mps 755 mmHg 72%
    15:00 +25°C° 0.3 mm 5 mps 755 mmHg 74%
    16:00 +25°C° 0.3 mm 5 mps 755 mmHg 76%
    17:00 +23°C° 0.1 mm 5 mps 755 mmHg 79%
    18:00 +22°C° 0.1 mm 5 mps 755 mmHg 82%
    19:00 +21°C° 0.1 mm 4 mps 755 mmHg 84%
    20:00 +21°C° 0 mm 4 mps 755 mmHg 85%
    21:00 +20°C° 0 mm 4 mps 756 mmHg 86%
    22:00 +20°C° 0 mm 4 mps 756 mmHg 86%
    23:00 +20°C° 0 mm 4 mps 756 mmHg 87%

    Tomorrow, 20 July, Friday

    Time Temperature Precipitation Wind Pressure Humidity
    00:00 +19°C° 0 mm 4 mps 756 mmHg 88%
    01:00 +19°C° 0 mm 4 mps 755 mmHg 88%
    02:00 +18°C° 0 mm 4 mps 755 mmHg 89%
    03:00 +18°C° 0 mm 4 mps 755 mmHg 89%
    04:00 +18°C° 0 mm 4 mps 755 mmHg 90%
    05:00 +19°C° 0 mm 4 mps 755 mmHg 86%
    06:00 +20°C° 0 mm 4 mps 755 mmHg 82%
    07:00 +21°C° 0 mm 4 mps 755 mmHg 78%
    08:00 +22°C° 0.1 mm 5 mps 756 mmHg 75%
    09:00 +23°C° 0.1 mm 5 mps 756 mmHg 71%
    10:00 +26°C° 0.1 mm 5 mps 756 mmHg 68%
    11:00 +26°C° 0.2 mm 6 mps 756 mmHg 66%
    12:00 +26°C° 0.2 mm 6 mps 756 mmHg 64%
    13:00 +26°C° 0.2 mm 6 mps 756 mmHg 62%
    14:00 +26°C° 0 mm 6 mps 756 mmHg 61%
    15:00 +24°C° 0 mm 6 mps 756 mmHg 61%
    16:00 +24°C° 0 mm 6 mps 756 mmHg 60%
    17:00 +23°C° 0 mm 5 mps 756 mmHg 64%
    18:00 +21°C° 0 mm 5 mps 756 mmHg 68%
    19:00 +20°C° 0 mm 4 mps 755 mmHg 72%
    20:00 +19°C° 0 mm 4 mps 756 mmHg 75%
    21:00 +18°C° 0 mm 4 mps 756 mmHg 78%
    22:00 +17°C° 0 mm 4 mps 756 mmHg 81%
    23:00 +15°C° 0 mm 4 mps 756 mmHg 83%

    Day after tomorrow, 21 July, Saturday

    Time Temperature Precipitation Wind Pressure Humidity
    00:00 +16°C° 0 mm 3 mps 755 mmHg 86%
    01:00 +14°C° 0 mm 3 mps 755 mmHg 88%
    02:00 +14°C° 0 mm 3 mps 755 mmHg 90%
    03:00 +14°C° 0 mm 3 mps 755 mmHg 92%
    04:00 +14°C° 0 mm 3 mps 755 mmHg 94%
    05:00 +16°C° 0 mm 3 mps 755 mmHg 88%
    06:00 +18°C° 0 mm 4 mps 755 mmHg 83%
    07:00 +20°C° 0 mm 4 mps 755 mmHg 78%
    08:00 +21°C° 0 mm 4 mps 755 mmHg 72%
    09:00 +24°C° 0 mm 3 mps 755 mmHg 65%
    10:00 +25°C° 0 mm 3 mps 755 mmHg 59%
    11:00 +26°C° 0 mm 3 mps 755 mmHg 57%
    12:00 +27°C° 0 mm 3 mps 755 mmHg 55%
    13:00 +27°C° 0 mm 3 mps 755 mmHg 53%
    14:00 +27°C° 0 mm 3 mps 755 mmHg 55%
    15:00 +27°C° 0 mm 4 mps 755 mmHg 57%
    16:00 +26°C° 0 mm 4 mps 755 mmHg 60%
    17:00 +25°C° 0 mm 3 mps 755 mmHg 65%
    18:00 +24°C° 0 mm 3 mps 755 mmHg 71%
    19:00 +21°C° 0 mm 3 mps 755 mmHg 77%
    20:00 +20°C° 0 mm 3 mps 755 mmHg 80%
    21:00 +19°C° 0 mm 2 mps 755 mmHg 84%
    22:00 +17°C° 0 mm 2 mps 755 mmHg 88%
    23:00 +17°C° 0 mm 2 mps 755 mmHg 88%

    22 July, Sunday

    Time Temperature Precipitation Wind Pressure Humidity
    00:00 +17°C° 0 mm 2 mps 755 mmHg 89%
    01:00 +16°C° 0 mm 2 mps 755 mmHg 89%
    02:00 +16°C° 0 mm 2 mps 755 mmHg 89%
    03:00 +16°C° 0 mm 2 mps 755 mmHg 89%
    04:00 +16°C° 0 mm 2 mps 755 mmHg 89%
    05:00 +17°C° 0 mm 2 mps 755 mmHg 84%
    06:00 +19°C° 0 mm 2 mps 755 mmHg 78%
    07:00 +20°C° 0 mm 2 mps 755 mmHg 73%
    08:00 +23°C° 0 mm 2 mps 755 mmHg 66%
    09:00 +24°C° 0 mm 2 mps 755 mmHg 59%
    10:00 +26°C° 0 mm 3 mps 755 mmHg 52%
    11:00 +26°C° 0 mm 3 mps 755 mmHg 50%
    12:00 +27°C° 0 mm 3 mps 755 mmHg 49%
    13:00 +28°C° 0 mm 3 mps 755 mmHg 47%
    14:00 +27°C° 0.1 mm 3 mps 755 mmHg 50%
    15:00 +27°C° 0.1 mm 3 mps 755 mmHg 53%
    16:00 +26°C° 0.1 mm 3 mps 755 mmHg 56%
    17:00 +25°C° 0.1 mm 2 mps 755 mmHg 63%
    18:00 +24°C° 0.1 mm 2 mps 755 mmHg 70%
    19:00 +22°C° 0.1 mm 1 mps 755 mmHg 76%
    20:00 +21°C° 0 mm 1 mps 755 mmHg 79%
    21:00 +20°C° 0 mm 1 mps 755 mmHg 82%
    22:00 +19°C° 0 mm 1 mps 755 mmHg 85%
    23:00 +18°C° 0 mm 2 mps 756 mmHg 86%

    23 July, Monday

    Time Temperature Precipitation Wind Pressure Humidity
    00:00 +18°C° 0 mm 2 mps 756 mmHg 87%
    01:00 +17°C° 0 mm 2 mps 756 mmHg 88%
    02:00 +17°C° 0 mm 2 mps 756 mmHg 90%
    03:00 +16°C° 0 mm 3 mps 755 mmHg 92%
    04:00 +16°C° 0 mm 3 mps 755 mmHg 94%
    05:00 +17°C° 0 mm 3 mps 756 mmHg 88%
    06:00 +19°C° 0 mm 3 mps 756 mmHg 82%
    07:00 +20°C° 0 mm 3 mps 756 mmHg 77%
    08:00 +21°C° 0 mm 3 mps 756 mmHg 71%
    09:00 +22°C° 0 mm 3 mps 756 mmHg 66%
    10:00 +23°C° 0 mm 4 mps 756 mmHg 61%
    11:00 +23°C° 0 mm 4 mps 756 mmHg 61%
    12:00 +23°C° 0 mm 4 mps 756 mmHg 62%
    13:00 +23°C° 0 mm 4 mps 756 mmHg 62%
    14:00 +23°C° 0 mm 4 mps 756 mmHg 64%
    15:00 +23°C° 0 mm 4 mps 756 mmHg 66%
    16:00 +22°C° 0 mm 4 mps 756 mmHg 67%
    17:00 +22°C° 0 mm 4 mps 756 mmHg 71%
    18:00 +21°C° 0 mm 3 mps 756 mmHg 76%
    19:00 +20°C° 0 mm 3 mps 756 mmHg 80%
    20:00 +19°C° 0 mm 3 mps 757 mmHg 84%
    21:00 +18°C° 0 mm 3 mps 757 mmHg 89%
    22:00 +17°C° 0 mm 3 mps 757 mmHg 93%
    23:00 +17°C° 0 mm 3 mps 757 mmHg 94%

    24 July, Tuesday

    Time Temperature Precipitation Wind Pressure Humidity
    00:00 +16°C° 0 mm 3 mps 757 mmHg 95%
    01:00 +16°C° 0 mm 3 mps 756 mmHg 96%
    02:00 +16°C° 0 mm 3 mps 756 mmHg 96%
    03:00 +17°C° 0 mm 3 mps 756 mmHg 96%
    04:00 +17°C° 0 mm 3 mps 756 mmHg 96%
    05:00 +18°C° 0 mm 3 mps 757 mmHg 91%
    06:00 +20°C° 0 mm 3 mps 757 mmHg 85%
    07:00 +22°C° 0 mm 3 mps 757 mmHg 80%
    08:00 +23°C° 0 mm 4 mps 757 mmHg 74%
    09:00 +26°C° 0 mm 4 mps 757 mmHg 68%
    10:00 +27°C° 0 mm 4 mps 757 mmHg 62%
    11:00 +27°C° 0 mm 4 mps 757 mmHg 61%
    12:00 +28°C° 0 mm 5 mps 757 mmHg 60%
    13:00 +28°C° 0 mm 5 mps 757 mmHg 59%
    14:00 +28°C° 0 mm 5 mps 757 mmHg 60%
    15:00 +27°C° 0 mm 5 mps 757 mmHg 61%
    16:00 +27°C° 0 mm 4 mps 757 mmHg 62%
    17:00 +26°C° 0 mm 4 mps 757 mmHg 68%
    18:00 +24°C° 0 mm 3 mps 757 mmHg 73%
    19:00 +23°C° 0 mm 2 mps 757 mmHg 78%
    20:00 +21°C° 0 mm 2 mps 757 mmHg 82%
    21:00 +20°C° 0 mm 2 mps 757 mmHg 87%
    22:00 +18°C° 0 mm 2 mps 758 mmHg 91%
    23:00 +18°C° 0 mm 2 mps 758 mmHg 92%
    Show more